Location: Nians�bougou
(13.2321°N, 4.9818°W)
Time: 10:16:59
(UTC+00:00)

Cosmos 1869 - Pass Details

Date: 18 February 2020
Orbit: 524 x 559 km, 82.5° (Epoch: 28 March)

Event Time Altitude Azimuth Distance (km) Brightness Sun altitude
Rises 05:39:53 0° 198° (SSW) 2,728 6.8 -15.6°
Reaches altitude 10° 05:42:10 10° 206° (SSW) 1,831 5.8 -15.1°
Maximum altitude 05:45:55 38° 275° (W) 851 3.8 -14.2°
Drops below altitude 10° 05:49:40 10° 344° (NNW) 1,818 5.7 -13.3°
Sets 05:51:55 0° 353° (N) 2,705 6.7 -12.7°
